Powrót do katalogu

STARLINK-3125

AktywnyŁącznośćVLEO
NORAD 49451·PAYLOAD·🇺🇸 United States

Wystrzelony Nov 13, 2021 z Cape Canaveral Space Force Station

Loading…

Następne Przeloty (najbliższe 24 godziny)

TLE

ŚwieżeSource: CelesTrak SupGP

Epoka: Sep 14, 2026, 14:35 UTC

1 49451C 21104AV  26257.60812500 -.00020911  00000+0 -63448-3 0  2574
2 49451  53.1581  79.4392 0001422  88.7617 206.0727 15.33561722    18

Śledź STARLINK-3125 w czasie rzeczywistym z AllMySat

Download on the App Store